Location: Indian Hills
(32.9760°N, 85.9450°W)
Time: 10:37:16
(UTC+00:00)

USA 267 - Pass Details

Date: 09 December 2019
Orbit: 1100 x 1107 km, 123.0° (Epoch: 19 January)

Event Time Altitude Azimuth Distance (km) Brightness Sun altitude
Rises 00:35:48 0° 159° (SSE) 3,900 6.1 -24.3°
Reaches altitude 10° 00:38:28 10° 166° (SSE) 2,945 5.5 -24.8°
Maximum altitude 00:44:27 39° 234° (SW) 1,580 4.5 -26.0°
Drops below altitude 10° 00:50:29 10° 301° (WNW) 2,956 6.1 -27.3°
Sets 00:53:10 0° 309° (NW) 3,917 6.7 -27.8°
